Starlink 3099

operational
NORAD ID: 49446 Int'l Des: 2021-104 Owner: SPXS Country: US Constellation: starlink
LEOCIRCULAR

About Starlink 3099

Description loading...

Live Position

Loading 3D Globe...

Upcoming Passes

Altitude History

Altitude vs Time

uPlot chart will show altitude changes over time

Two-Line Element Set

1 49446U 21104AQ 25308.54947522 .00001205 00000-0 93762-4 0 9990
2 49446 53.2175 50.8948 0001235 88.2363 271.8771 15.08839120220023
Epoch: Nov 4, 2025 • Age: 6 hours

Current Status

Altitude 539.7 km
Velocity 7.59 km/s
Sub-Earth Point 10.88°N, 102.97°W
Launch Date Nov 13, 2021
Age 3.9 years
Type internet

Technical Details

Classification Payload
Mass 290.00 kg
Dry Mass 270.00 kg
Total Mass 290.00 kg
Length 0.20 m
Diameter 2.80 m
Span 9.00 m
Shape Box + pan
Manufacturer SPXS
Bus Type Starlink
Phase Status In Orbit
Owner/State SPXS/US

Large Constellations

Loading constellations...